Carbondale, IL

10:05 PM CST on November 17, 2019 (GMT -0600)
Southern Illinois

Weather History for KMDH - August, 2019

Change the Weather History Date:

Sunday, August 25, 2019

  Actual Average Record
Temperature  
Mean Temperature 72 °F -  
Max Temperature 81 °F 87 °F 102 °F (1943)
Min Temperature 64 °F 62 °F 37 °F (1996)
Cooling Degree Days 7    
Growing Degree Days 22 (Base 50)    
Moisture  
Dew Point 67 °F    
Average Humidity 82    
Maximum Humidity 91    
Minimum Humidity 69    
Precipitation  
Precipitation 0.03 in - - ()
Sea Level Pressure  
Sea Level Pressure 29.95 in    
Wind  
Wind Speed 4 mph (ESE)    
Max Wind Speed 13 mph    
Max Gust Speed -    
Visibility 10 miles    
Events Rain    
Averages and records for this station are not official NWS values.
T = Trace of Precipitation, MM = Missing Value Source: NWS Daily Summary

Daily Weather History Graph

Daily Weather History Graph

Search for Another Location

Airport or City:

Astronomy

Aug. 25, 2019 Rise Set
Actual Time 6:20 AM CDT 7:36 PM CDT
Civil Twilight 5:53 AM CDT 8:03 PM CDT
Nautical Twilight 5:21 AM CDT 8:36 PM CDT
Astronomical Twilight 4:46 AM CDT 9:10 PM CDT
Moon 12:59 AM CDT (8/25) 3:53 PM CDT (8/25)
Length of Visible Light 14h 10m
Length of Day
13h 15m
Waning Crescent, 29% of the Moon is Illuminated
Aug 25
Waning Crescent
Aug 30
New
Sep 5
First Quarter
Sep 13
Full
Sep 21
Last Quarter

Hourly Weather History & Observations

Time (CDT) Temp. Heat Index Dew Point Humidity Pressure Visibility Wind Dir Wind Speed Gust Speed Precip Events Conditions
12:52 AM 64.9 °F - 62.1 °F 90% 30.06 in 10.0 mi NE 3.5 mph - N/A   Clear
1:52 AM 66.0 °F - 62.1 °F 87% 30.04 in 10.0 mi Calm Calm - N/A   Clear
2:52 AM 64.9 °F - 61.0 °F 87% 30.01 in 10.0 mi ENE 3.5 mph - N/A   Scattered Clouds
3:52 AM 64.9 °F - 61.0 °F 87% 30.01 in 10.0 mi Calm Calm - N/A   Mostly Cloudy
4:52 AM 64.9 °F - 61.0 °F 87% 30.01 in 10.0 mi Calm Calm - N/A   Scattered Clouds
5:52 AM 64.9 °F - 61.0 °F 87% 30.00 in 10.0 mi East 3.5 mph - N/A   Overcast
6:52 AM 64.9 °F - 61.0 °F 87% 30.00 in 10.0 mi East 4.6 mph - N/A   Clear
7:52 AM 66.0 °F - 61.0 °F 84% 30.00 in 10.0 mi NE 3.5 mph - N/A   Mostly Cloudy
8:52 AM 66.9 °F - 61.0 °F 81% 30.00 in 10.0 mi East 4.6 mph - N/A   Overcast
9:52 AM 69.1 °F - 62.1 °F 78% 30.01 in 10.0 mi Calm Calm - N/A   Overcast
10:52 AM 69.1 °F - 63.0 °F 81% 29.99 in 10.0 mi East 4.6 mph - 0.00 in Rain Light Rain
11:52 AM 75.9 °F - 64.9 °F 69% 29.98 in 10.0 mi Variable 5.8 mph - 0.00 in   Overcast
12:52 PM 78.1 °F - 68.0 °F 71% 29.96 in 10.0 mi ESE 6.9 mph - N/A   Overcast
1:52 PM 77.0 °F - 68.0 °F 74% 29.95 in 10.0 mi SE 8.1 mph - N/A   Overcast
2:41 PM 79.0 °F - 70.0 °F 74% 29.94 in 10.0 mi ESE 5.8 mph - 0.00 in   Overcast
2:52 PM 78.1 °F - 70.0 °F 76% 29.93 in 10.0 mi ESE 5.8 mph - 0.00 in   Overcast
3:50 PM 80.6 °F 83.9 °F 69.8 °F 70% 29.90 in 10.0 mi East 9.2 mph - N/A   Mostly Cloudy
4:30 PM 78.1 °F - 71.1 °F 79% 29.91 in 10.0 mi SE 6.9 mph - N/A   Overcast
4:52 PM 78.1 °F - 71.1 °F 79% 29.90 in 10.0 mi ESE 6.9 mph - N/A   Overcast
5:29 PM 80.1 °F 83.6 °F 71.1 °F 74% 29.89 in 10.0 mi ESE 12.7 mph - N/A   Scattered Clouds
5:52 PM 78.1 °F - 71.1 °F 79% 29.88 in 10.0 mi ESE 9.2 mph - N/A   Clear
6:52 PM 78.1 °F - 72.0 °F 81% 29.89 in 10.0 mi SE 5.8 mph - N/A   Overcast
7:52 PM 75.0 °F - 71.1 °F 87% 29.88 in 10.0 mi ESE 4.6 mph - N/A   Partly Cloudy
8:52 PM 73.9 °F - 71.1 °F 91% 29.88 in 10.0 mi SE 5.8 mph - N/A   Partly Cloudy
9:52 PM 73.9 °F - 71.1 °F 91% 29.88 in 10.0 mi SE 6.9 mph - N/A   Partly Cloudy
10:52 PM 73.9 °F - 71.1 °F 91% 29.88 in 10.0 mi SSE 8.1 mph - N/A   Scattered Clouds
11:37 PM 73.9 °F - 71.1 °F 91% 29.88 in 10.0 mi SSE 6.9 mph - N/A   Mostly Cloudy
11:52 PM 73.9 °F - 71.1 °F 91% 29.87 in 6.0 mi SSE 5.8 mph - 0.03 in Rain Light Rain